Torna al catalogo

CZ-6A DEB

AttivoSSO
NORAD 56262·DEBRIS·🇨🇳 China

Lanciato Nov 11, 2022 da Taiyuan Satellite Launch Center

Loading…

Prossimi Passaggi (prossime 24 ore)

TLE

AggiornatoSource: Space-Track

Epoca: Sep 14, 2026, 11:59 UTC

1 56262U 22151ACE 26257.49959356  .00001414  00000-0  71677-3 0  9995
2 56262  98.8395 264.4019 0046533  45.9646 314.5347 14.17078225185857

Traccia CZ-6A DEB in tempo reale con AllMySat

Download on the App Store